Terminal Aerodrome Forecast
Issued by NWS

Home | Current Version | Previous Version | Graphics & Text | Print | Product List | Glossary On
Versions: 1 2 3 4 5 6 7 8 9 10 11 12 13 14 15 16 17 18 19
000
FTUS43 KTOP 190900 AAA
TAFMHK
TAF AMD
KMHK 190910Z 1909/2006 00000KT 6SM BR OVC009
     FM191900 19004KT 6SM BR SCT009 OVC015=

USA.gov is the U.S. government's official web portal to all federal, state and local government web resources and services.